TimeCST,TemperatureF,Dew PointF,Humidity,Sea Level PressureIn,VisibilityMPH,Wind Direction,Wind SpeedMPH,Gust SpeedMPH,PrecipitationIn,Events,Conditions,WindDirDegrees,DateUTC
12:56 AM,3.0,1.0,91,30.23,4.0,Calm,Calm,-,N/A,,Clear,0,2012-12-30 06:56:00
1:45 AM,8.6,3.2,79,30.21,5.0,Calm,Calm,-,N/A,,Haze,0,2012-12-30 07:45:00
1:56 AM,5.0,3.0,92,30.25,5.0,Calm,Calm,-,N/A,,Overcast,0,2012-12-30 07:56:00
2:08 AM,8.6,3.2,79,30.22,5.0,Calm,Calm,-,N/A,,Haze,0,2012-12-30 08:08:00
2:18 AM,8.6,5.0,85,30.22,5.0,Calm,Calm,-,N/A,,Overcast,0,2012-12-30 08:18:00
2:45 AM,10.4,8.6,92,30.23,2.5,West,4.6,-,N/A,,Overcast,280,2012-12-30 08:45:00
2:56 AM,10.9,8.1,88,30.25,3.0,West,3.5,-,N/A,,Overcast,280,2012-12-30 08:56:00
3:56 AM,12.0,9.0,88,30.27,4.0,Calm,Calm,-,N/A,,Overcast,0,2012-12-30 09:56:00
4:23 AM,12.2,8.6,85,30.24,4.0,West,5.8,-,N/A,,Overcast,280,2012-12-30 10:23:00
4:56 AM,12.0,9.0,88,30.27,5.0,WNW,5.8,-,N/A,,Overcast,290,2012-12-30 10:56:00
5:56 AM,10.9,8.1,88,30.28,5.0,West,4.6,-,N/A,,Overcast,270,2012-12-30 11:56:00
6:56 AM,10.9,7.0,84,30.29,4.0,Calm,Calm,-,N/A,,Overcast,0,2012-12-30 12:56:00
7:56 AM,9.0,5.0,84,30.31,3.0,SW,4.6,-,N/A,,Overcast,220,2012-12-30 13:56:00
8:36 AM,6.8,5.0,92,30.28,3.0,Calm,Calm,-,N/A,,Scattered Clouds,0,2012-12-30 14:36:00
8:56 AM,8.1,6.1,92,30.31,3.0,Calm,Calm,-,N/A,,Clear,0,2012-12-30 14:56:00
9:15 AM,8.6,5.0,85,30.28,2.5,Calm,Calm,-,N/A,,Clear,0,2012-12-30 15:15:00
9:22 AM,8.6,6.8,92,30.28,3.0,SSE,4.6,-,N/A,,Clear,160,2012-12-30 15:22:00
9:56 AM,10.0,8.1,92,30.32,4.0,Calm,Calm,-,N/A,,Clear,0,2012-12-30 15:56:00
10:56 AM,10.9,7.0,84,30.31,5.0,ENE,3.5,-,N/A,,Clear,60,2012-12-30 16:56:00
11:56 AM,14.0,8.1,77,30.27,5.0,ENE,4.6,-,N/A,,Haze,60,2012-12-30 17:56:00
12:56 PM,19.0,10.0,68,30.24,5.0,Calm,Calm,-,N/A,,Haze,0,2012-12-30 18:56:00
1:56 PM,21.0,12.0,68,30.21,5.0,Calm,Calm,-,N/A,,Haze,0,2012-12-30 19:56:00
2:56 PM,19.9,10.9,68,30.18,6.0,Calm,Calm,-,N/A,,Haze,0,2012-12-30 20:56:00
3:56 PM,16.0,9.0,74,30.16,5.0,Calm,Calm,-,N/A,,Haze,0,2012-12-30 21:56:00
4:56 PM,12.0,6.1,77,30.14,6.0,East,9.2,-,N/A,,Haze,90,2012-12-30 22:56:00
5:56 PM,15.1,9.0,77,30.12,6.0,East,11.5,-,N/A,,Haze,90,2012-12-30 23:56:00
6:56 PM,16.0,10.0,77,30.09,6.0,East,8.1,-,N/A,,Haze,80,2012-12-31 00:56:00
7:56 PM,21.9,16.0,78,30.06,6.0,Calm,Calm,-,N/A,,Haze,0,2012-12-31 01:56:00
8:56 PM,27.0,19.0,72,30.03,8.0,Calm,Calm,-,N/A,,Clear,0,2012-12-31 02:56:00
9:56 PM,28.0,19.9,72,29.99,9.0,Calm,Calm,-,N/A,,Clear,0,2012-12-31 03:56:00
10:56 PM,30.9,21.9,69,29.98,10.0,SW,5.8,-,N/A,,Clear,220,2012-12-31 04:56:00
11:56 PM,32.0,21.9,66,29.96,10.0,SW,6.9,-,N/A,,Clear,220,2012-12-31 05:56:00